COSMOS 886 DEB

Satellite information

Favourite Embed

Satellite Type and Status

DEBRISIN ORBIT

Key statistics

Satellite COSMOS 886 DEB at a glance.

Uptime

17725

Days in orbit

Revolutions

≈ 13.2

Per day

Orbit

LEO

Low Earth Orbit

Inclination

65.9

Latest

Satellite identification and parameters

Extended collection of information and parameters for COSMOS 886 DEB.

Object identification

Identified? True

Debris? True

Object name: COSMOS 886 DEB

International designator: 1976-126CD

Object number (NORAD): 19475

Object ID (CCSDS): 19475

Country: COMMONWEALTH OF INDEPENDENT STATES (CIS)

Current information (Y/N): Y

RCS size: SMALL

Orbital parameters

Period: 109.391 minutes

Inclination: 65.8558 deg

SMA: 7576.722 km

Apoapsis: 1804.475 km

Periapsis: 592.7 km

RAAN: 44.2677 deg

Eccentricy: 0.079967

Argument of periapsis: 17.0338 deg

Mean anomaly: 345.5948 deg

Mean motion: 13.16378237 rev/day

Mean motion (dot): 0.00001129 rev/day2

B* drag term: 0.00058325 1/REarth

Two-line elements (TLE)

Creation date: July 8, 2025, 2:27 a.m.

Reference frame: TEME

Reference center: EARTH

Epoch: July 7, 2025, 5:36 p.m. UTC

TLE line 0: 0 COSMOS 886 DEB

TLE line 1: 1 19475U 76126CD 25188.73400401 .00001129 00000-0 58325-3 0 9990

TLE line 2: 2 19475 65.8558 44.2677 0799670 17.0338 345.5948 13.16378237664246

Live tracking on map

Real-time ground track for satellite COSMOS 886 DEB.

In-orbit conjunctions

A list of the most updated potential collisions computed for object COSMOS 886 DEB.

Target Orbit TCA Probability of collision Miss distance Type
COSMOS 980 LEO 2025-04-07 16:32:05 0.0002159431 446.0 (m) PAYLOAD

Associated space launch

Second generation ASAT satellite

COSMOS 886 DEB was lifted into orbit during the mission ‘Tsiklon-2 | IS-A 4’, on board a Tsiklon-2 space rocket.

The launch took place on Dec. 27, 1976, 12:05 p.m. from 90.

For more information about the launch, click the button.

Launch to space Tsiklon-2 | IS-A 4
Tsiklon-2 | IS-A 4

Agency: N/A

Status: Launch Successful

Launch date: Dec. 27, 1976, 12:05 p.m. UTC

Rocket: Tsiklon-2

Launch pad: 90

Location: Baikonur Cosmodrome, Republic of Kazakhstan

...

Latest news about this satellite

There are no fresh news available about this satellite. Check back as we update our databases every day.


Newsletter sign-up

Weekly statistics, charts and insights to help you stay on top of the space industry.